Location: ??
(35.5090°N, 139.6783°E)
Time: 19:02:02
(UTC+00:00)

Cosmos 1782 Rocket - Pass Details

Date: 08 November 2025
Orbit: 599 x 626 km, 82.5° (Epoch: 08 December)

Event Time Altitude Azimuth Distance (km) Brightness Sun altitude
Rises 08:19:38 0° 166° (SSE) 2,888 7.0 -8.5°
Reaches altitude 10° 08:21:57 10° 158° (SSE) 1,989 6.1 -9.0°
Maximum altitude 08:26:01 37° 91° (E) 975 4.1 -9.8°
Drops below altitude 10° 08:30:07 10° 25° (NNE) 2,005 5.8 -10.6°
Sets 08:32:28 0° 17° (NNE) 2,916 6.7 -11.1°
